NOAA-14
1 23455U 94089A   05090.35740996 -.00000082  00000-0 -19006-4 0  5433
2 23455 099.0983 137.3840 0008955 215.3172 144.7407 14.13549501528503
SICH-1
1 23657U 95046A   05090.74748252  .00000274  00000-0  32133-4 0  3926
2 23657 082.5260 110.4361 0024857 021.2790 338.9476 14.81119955516490
NOAA-15
1 25338U 98030A   05090.31472579  .00000053  00000-0  41212-4 0  9872
2 25338 098.5166 101.0121 0009888 222.0259 138.0158 14.24497348357668
RESURS
1 25394U 98043A   05089.94038673  .00000028  00000-0  30629-4 0 01085
2 25394 098.5455 161.3574 0002125 060.3243 299.8147 14.24057429349314
FENGYUN1
1 25730U 99025A   05089.39724439 -.00000047  00000-0 -25695-5 0 03792
2 25730 098.6065 094.3288 0013975 329.6676 030.3683 14.11791877303398
OKEAN-0
1 25860U 99039A   05089.65225060  .00000154  00000-0  31164-4 0 03958
2 25860 097.7661 118.9714 0002219 099.2799 260.8661 14.73225548306446
NOAA-16
1 26536U 00055A   05090.42659122  .00000325  00000-0  20123-3 0  2957
2 26536 099.0061 048.4561 0009724 288.1187 071.8937 14.12224059233085
NOAA-17
1 27453U 02032A   05090.41725855  .00000082  00000-0  55278-4 0  3219
2 27453 098.6654 165.0927 0010801 280.1211 079.8749 14.23646503143776
HUBBLE
1 20580U 90037B   05089.92946758  .00000731  00000-0  44775-4 0 03071
2 20580 028.4675 058.6672 0003993 165.1674 194.9032 14.99651240618483
UARS
1 21701U 91063B   05089.82141276 -.00001172  00000-0 -65945-4 0 04095
2 21701 056.9799 147.7137 0005468 102.6274 257.5480 15.03786171741702
PO-34
1 25520U 98064B   05089.71869476  .00000895  00000-0  35267-4 0 01688
2 25520 028.4589 116.8596 0005892 093.2266 266.8992 15.16184207354661
ISS
1 25544U 98067A   05090.88703704  .00016539  00000-0  13635-3 0  1392
2 25544 051.6457 296.4686 0005599 316.5422 245.0803 15.70495409363527
WO-39
1 26061U 00004A   03303.41062303  .00002252  00000-0  75720-3 0  9734
2 26061 100.1904 047.3011 0034615 281.6926 078.0378 14.38082544197011
OO-38
1 26063U 00004C   05089.58676189 -.00000029  00000-0  10653-4 0 03202
2 26063 100.2257 295.2041 0036596 276.6812 083.0200 14.35708937271022
NO-45
1 26932U 01043D   05090.83512291 -.00000191  00000-0 -42411-4 0  9994
2 26932 067.0578 066.6632 0008881 258.6567 101.3555 14.29476298182744
